Weather Roundup
Issued by NWS

Home | Current Version | Previous Version | Graphics & Text | Print | Product List | Glossary Off
Versions: 1 2 3 4 5 6 7 8 9 10 11 12 13 14 15 16 17 18 19 20 21 22 23 24 25 26 27 28 29 30 31 32 33 34 35 36 37 38 39 40 41 42 43 44 45 46 47 48 49 50

000
NZUS93 KARX 231010
HRRWXR

CURRENT HOURLY OBSERVATIONS ACROSS
MUCH OF THE UPPER MISSISSIPPI VALLEY
NATIONAL WEATHER SERVICE LA CROSSE WI
500 AM CDT WED APR 23 2014


...SOUTHEAST MINNESOTA...


CITY           SKY/WX    TMP DP  RH WIND       PRES   REMARKS
ROCHESTER      CLOUDY    38  27  64 SE10      30.10R WCI  31
ROCHESTER/MAYO FAIR      40  25  54 E9        30.11R WCI  35
WINONA         PTCLDY    37  30  75 CALM      30.14R
AUSTIN         CLOUDY    43  28  56 SE13      30.08S
ALBERT LEA     CLOUDY    45  28  53 SE10      30.07R
DODGE CENTER   CLOUDY    43  30  61 SE12      30.09S
PRESTON        CLOUDY    41  28  60 SE5       30.12R
OWATONNA       CLOUDY    43  28  56 SE13      30.08R
FARIBAULT      CLOUDY    46  25  42 E10       30.08S
$$

...ELSEWHERE IN MINNESOTA...


CITY           SKY/WX    TMP DP  RH WIND       PRES   REMARKS
MINNEAPOLIS    CLOUDY    43  27  53 SE12      30.09S
INTNL FALLS    CLEAR     26  21  81 SE3       30.08F
DULUTH         CLEAR     32  22  66 SE7       30.10S WCI  26
RED WING       CLOUDY    41  27  56 E6        30.10S
REDWOOD FALLS  LGT RAIN  46  34  62 SE13      30.00F
MANKATO        CLOUDY    45  28  53 SE13      30.06S
WORTHINGTON    MOCLDY    48  30  49 SE18G25   29.97F
FAIRMONT       CLOUDY    45  32  61 SE15      30.03F
$$

...SOUTHWEST WISCONSIN...


CITY           SKY/WX    TMP DP  RH WIND       PRES   REMARKS
LA CROSSE      PTCLDY    37  27  67 SE5       30.13S WCI  33
PRAIRIE DU CHI PTCLDY    41  29  62 CALM      30.13R
BOSCOBEL       PTCLDY    31  27  85 CALM      30.14R
LONE ROCK      CLEAR     31  27  85 CALM      30.14R
PLATTEVILLE    CLEAR     34  27  76 E3        30.13S
FORT MC COY    PTCLDY    27  24  87 CALM      30.15R
CAMP DOUGLAS   CLEAR     25  25 100 CALM      30.14S
VIROQUA        FAIR      34  28  77 E8        30.11S WCI  27
WIS DELLS      CLEAR     34  26  71 NE5       30.14S WCI  30
$$

...ELSEWHERE IN WISCONSIN...


CITY           SKY/WX    TMP DP  RH WIND       PRES   REMARKS
MILWAUKEE      PTCLDY    34  27  75 N6        30.15S WCI  29
MADISON        CLEAR     32  27  81 CALM      30.16R
GREEN BAY      CLEAR     30  27  88 N6        30.16R WCI  24
EAU CLAIRE     MOCLDY    32  27  81 NE6       30.11F WCI  26
BLACK RVR FLS  FAIR      25  25 100 CALM      30.14R
MEDFORD        CLEAR     28  25  91 E6        30.13S WCI  21
WAUSAU         CLEAR     29  25  85 CALM      30.14R
WIS RAPIDS     CLEAR     27  24  89 CALM      30.16R
MARSHFIELD     CLEAR     32  25  75 CALM      30.14R
RICE LAKE      PTCLDY    29  26  90 CALM      30.13F
$$

...NORTHEAST IOWA...


CITY           SKY/WX    TMP DP  RH WIND       PRES   REMARKS
WATERLOO       CLOUDY    45  29  53 E14       30.10R
DUBUQUE        CLEAR     34  27  75 SE3       30.13R
DECORAH        CLOUDY    41  28  60 E8        30.11R
MASON CITY     CLOUDY    45  31  58 E16       30.08S
CHARLES CITY   CLOUDY    43  30  61 E12       30.10R
OELWEIN        CLOUDY   N/A N/A N/A E14       30.11R
$$

...ELSEWHERE IN IOWA...


CITY           SKY/WX    TMP DP  RH WIND       PRES   REMARKS
DES MOINES     MOCLDY    52  32  46 E8        30.03S
IOWA CITY      MOCLDY    41  33  73 E8        30.11R
FORT DODGE     MOCLDY    48  30  49 SE15      30.02F
MARSHALLTOWN   CLOUDY    45  31  58 E14       30.06S
CEDAR RAPIDS   PTCLDY    41  32  70 E9        30.09R
$$

...NORTHERN ILLINOIS...


CITY           SKY/WX    TMP DP  RH WIND       PRES   REMARKS
CHICAGO-OHARE  CLEAR     35  26  69 N7        30.13S WCI  29
DUPAGE         CLEAR     29  25  85 N6        30.13R WCI  23
CHICAGO-MIDWAY CLEAR     37  28  70 N12       30.13R WCI  29
MOLINE         CLEAR     34  29  82 E7        30.12R WCI  28
ROCKFORD       CLEAR     35  27  72 CALM      30.16R
STERLING       CLEAR     34  28  80 E7        30.13S WCI  28
PEORIA         CLEAR     41  27  57 E7        30.12R
$$

NOTE: "FAIR" INDICATES FEW OR NO CLOUDS BELOW 12,000 FEET WITH NO
SIGNIFICANT WEATHER AND/OR OBSTRUCTIONS TO VISIBILITY. WIND
SPEEDS ARE IN MILES-PER-HOUR.



USA.gov is the U.S. government's official web portal to all federal, state and local government web resources and services.